| time (UTC) | temp C | wind direction | speed KPH | gust KPH | rain 1hr cm | rain 24hr cm | rain mn cm | humidity % | barometer mb |
| 20260509143350 | 18 | 184 | 4.8 | 12.9 | 0.00 | 0.00 | 0.00 | 79 | 1014.8 |
| 20260509142904 | 18 | 214 | 3.2 | 11.3 | 0.00 | 0.00 | 0.00 | 80 | 1014.8 |
| 20260509142343 | 18 | 204 | 3.2 | 12.9 | 0.00 | 0.00 | 0.00 | 80 | 1014.6 |
| 20260509141902 | 18 | 175 | 1.6 | 9.7 | 0.00 | 0.00 | 0.00 | 79 | 1014.5 |
| 20260509141359 | 18 | 158 | 1.6 | 8.0 | 0.00 | 0.00 | 0.00 | 82 | 1014.5 |
| 20260509140835 | 18 | 217 | 1.6 | 8.0 | 0.00 | 0.00 | 0.00 | 82 | 1014.1 |
| 20260509140337 | 18 | 273 | 1.6 | 8.0 | 0.00 | 0.00 | 0.00 | 82 | 1014.1 |
| 20260509135850 | 17 | 221 | 3.2 | 8.0 | 0.00 | 0.00 | 0.00 | 81 | 1014.1 |
| 20260509135333 | 17 | 133 | 0.0 | 9.7 | 0.00 | 0.00 | 0.00 | 83 | 1014.2 |
| 20260509134850 | 17 | 200 | 3.2 | 9.7 | 0.00 | 0.00 | 0.00 | 82 | 1014.2 |
| 20260509134348 | 17 | 214 | 1.6 | 8.0 | 0.00 | 0.00 | 0.00 | 83 | 1014.2 |
| 20260509133843 | 17 | 178 | 1.6 | 9.7 | 0.00 | 0.00 | 0.00 | 85 | 1014.1 |
| 20260509133344 | 17 | 165 | 1.6 | 6.4 | 0.00 | 0.00 | 0.00 | 85 | 1014.2 |
| 20260509132835 | 16 | 234 | 3.2 | 6.4 | 0.00 | 0.00 | 0.00 | 85 | 1014.2 |
| 20260509132335 | 16 | 209 | 1.6 | 6.4 | 0.00 | 0.00 | 0.00 | 84 | 1014.2 |
| 20260509131832 | 16 | 220 | 1.6 | 8.0 | 0.00 | 0.00 | 0.00 | 84 | 1014.2 |
| 20260509131332 | 16 | 198 | 4.8 | 8.0 | 0.00 | 0.00 | 0.00 | 85 | 1014.2 |
| 20260509130849 | 16 | 177 | 4.8 | 8.0 | 0.00 | 0.00 | 0.00 | 84 | 1014.3 |
| 20260509130350 | 16 | 173 | 3.2 | 6.4 | 0.00 | 0.00 | 0.00 | 86 | 1014.2 |
| 20260509125844 | 15 | 118 | 3.2 | 6.4 | 0.00 | 0.00 | 0.00 | 86 | 1014.0 |
| 20260509125344 | 15 | 171 | 1.6 | 6.4 | 0.00 | 0.00 | 0.00 | 87 | 1014.4 |
| 20260509124843 | 15 | 221 | 1.6 | 8.0 | 0.00 | 0.00 | 0.00 | 87 | 1014.4 |
| 20260509124403 | 15 | 221 | 0.0 | 4.8 | 0.00 | 0.00 | 0.00 | 88 | 1014.5 |
| 20260509123839 | 15 | 221 | 0.0 | 3.2 | 0.00 | 0.00 | 0.00 | 87 | 1014.5 |
| 20260509123358 | 15 | 221 | 0.0 | 3.2 | 0.00 | 0.00 | 0.00 | 88 | 1014.4 |
| 20260509122837 | 15 | 221 | 0.0 | 3.2 | 0.00 | 0.00 | 0.00 | 89 | 1014.4 |
| 20260509122337 | 14 | 218 | 0.0 | 1.6 | 0.00 | 0.00 | 0.00 | 90 | 1014.3 |
| 20260509121833 | 14 | 218 | 0.0 | 3.2 | 0.00 | 0.00 | 0.00 | 90 | 1014.2 |
| 20260509121352 | 13 | 218 | 1.6 | 3.2 | 0.00 | 0.00 | 0.00 | 90 | 1014.3 |
| 20260509120847 | 13 | 218 | 1.6 | 3.2 | 0.00 | 0.00 | 0.00 | 90 | 1014.3 |
| 20260509120347 | 13 | 218 | 0.0 | 4.8 | 0.00 | 0.00 | 0.00 | 90 | 1014.2 |
| 20260509115857 | 13 | 126 | 0.0 | 4.8 | 0.00 | 0.00 | 0.00 | 91 | 1014.1 |
| 20260509115336 | 13 | 126 | 3.2 | 4.8 | 0.00 | 0.00 | 0.00 | 91 | 1014.0 |
| 20260509114834 | 13 | 126 | 1.6 | 3.2 | 0.00 | 0.00 | 0.00 | 91 | 1014.2 |
| 20260509114335 | 13 | 126 | 0.0 | 3.2 | 0.00 | 0.00 | 0.00 | 91 | 1014.1 |
| 20260509113834 | 13 | 126 | 0.0 | 1.6 | 0.00 | 0.00 | 0.00 | 92 | 1014.1 |
| 20260509113335 | 12 | 126 | 0.0 | 1.6 | 0.00 | 0.00 | 0.00 | 92 | 1014.1 |
| 20260509112850 | 12 | 126 | 0.0 | 1.6 | 0.00 | 0.00 | 0.00 | 92 | 1014.1 |
| 20260509112349 | 12 | 126 | 0.0 | 1.6 | 0.00 | 0.00 | 0.00 | 92 | 1014.1 |
| 20260509111848 | 12 | 126 | 0.0 | 0.0 | 0.00 | 0.00 | 0.00 | 92 | 1014.0 |
| 20260509111408 | 12 | 126 | 0.0 | 4.8 | 0.00 | 0.00 | 0.00 | 92 | 1013.8 |
| 20260509110844 | 12 | 126 | 1.6 | 4.8 | 0.00 | 0.00 | 0.00 | 92 | 1013.8 |
| 20260509110349 | 12 | 76 | 1.6 | 3.2 | 0.00 | 0.00 | 0.00 | 92 | 1013.9 |
| 20260509105841 | 12 | 76 | 0.0 | 3.2 | 0.00 | 0.00 | 0.00 | 92 | 1014.0 |
| 20260509105339 | 12 | 76 | 0.0 | 3.2 | 0.00 | 0.00 | 0.00 | 92 | 1013.9 |
| 20260509104838 | 12 | 76 | 0.0 | 3.2 | 0.00 | 0.00 | 0.00 | 92 | 1013.8 |
| 20260509104338 | 12 | 76 | 1.6 | 4.8 | 0.00 | 0.00 | 0.00 | 92 | 1013.8 |
| 20260509103837 | 12 | 76 | 1.6 | 4.8 | 0.00 | 0.00 | 0.00 | 93 | 1013.8 |
| 20260509103338 | 12 | 77 | 0.0 | 0.0 | 0.00 | 0.00 | 0.00 | 93 | 1013.8 |
| 20260509102833 | 12 | 78 | 0.0 | 0.0 | 0.00 | 0.00 | 0.00 | 93 | 1013.7 |
| 20260509102354 | 12 | 77 | 0.0 | 0.0 | 0.00 | 0.00 | 0.00 | 93 | 1013.6 |
| 20260509101829 | 12 | 77 | 0.0 | 0.0 | 0.00 | 0.00 | 0.00 | 93 | 1013.6 |
| 20260509101330 | 12 | 78 | 0.0 | 0.0 | 0.00 | 0.00 | 0.00 | 93 | 1013.6 |
| 20260509100848 | 12 | 78 | 0.0 | 0.0 | 0.00 | 0.00 | 0.00 | 93 | 1013.8 |
| 20260509100409 | 12 | 77 | 0.0 | 1.6 | 0.00 | 0.00 | 0.00 | 93 | 1013.8 |
| 20260509095843 | 12 | 77 | 0.0 | 1.6 | 0.00 | 0.00 | 0.00 | 93 | 1013.8 |
| 20260509095344 | 12 | 77 | 0.0 | 1.6 | 0.00 | 0.00 | 0.00 | 93 | 1013.5 |
| 20260509094901 | 12 | 77 | 0.0 | 1.6 | 0.00 | 0.00 | 0.00 | 92 | 1013.5 |
| 20260509094339 | 12 | 77 | 0.0 | 1.6 | 0.00 | 0.00 | 0.00 | 92 | 1013.7 |
| 20260509093841 | 12 | 77 | 0.0 | 3.2 | 0.00 | 0.00 | 0.00 | 91 | 1013.6 |
| 20260509093343 | 12 | 77 | 1.6 | 4.8 | 0.00 | 0.00 | 0.00 | 91 | 1013.4 |
| 20260509092836 | 12 | 78 | 1.6 | 6.4 | 0.00 | 0.00 | 0.00 | 90 | 1013.3 |
| 20260509091904 | 12 | 155 | 0.0 | 1.6 | 0.00 | 0.00 | 0.00 | 91 | 1013.7 |
| 20260509091339 | 12 | 155 | 0.0 | 1.6 | 0.00 | 0.00 | 0.00 | 91 | 1013.8 |
| 20260509090855 | 12 | 155 | 0.0 | 3.2 | 0.00 | 0.00 | 0.00 | 91 | 1013.7 |
| 20260509090355 | 12 | 155 | 1.6 | 6.4 | 0.00 | 0.00 | 0.00 | 91 | 1013.7 |
| 20260509085848 | 12 | 127 | 3.2 | 6.4 | 0.00 | 0.00 | 0.00 | 91 | 1013.8 |
| 20260509085348 | 12 | 159 | 0.0 | 9.7 | 0.00 | 0.00 | 0.00 | 91 | 1014.0 |
| 20260509084907 | 12 | 221 | 1.6 | 9.7 | 0.00 | 0.00 | 0.00 | 91 | 1013.8 |
| 20260509084346 | 12 | 205 | 0.0 | 1.6 | 0.00 | 0.00 | 0.00 | 91 | 1014.1 |
| 20260509083841 | 12 | 205 | 0.0 | 1.6 | 0.00 | 0.00 | 0.00 | 91 | 1014.2 |
| 20260509083341 | 12 | 205 | 0.0 | 4.8 | 0.00 | 0.00 | 0.00 | 92 | 1014.4 |
| 20260509082837 | 12 | 205 | 1.6 | 4.8 | 0.00 | 0.00 | 0.00 | 92 | 1014.4 |
| 20260509082336 | 12 | 216 | 0.0 | 3.2 | 0.00 | 0.00 | 0.00 | 92 | 1014.3 |
| 20260509081854 | 11 | 216 | 0.0 | 3.2 | 0.00 | 0.00 | 0.00 | 92 | 1014.0 |
| 20260509081334 | 11 | 216 | 1.6 | 3.2 | 0.00 | 0.00 | 0.00 | 92 | 1014.0 |
| 20260509080848 | 11 | 216 | 1.6 | 3.2 | 0.00 | 0.00 | 0.00 | 92 | 1013.9 |
| 20260509080333 | 11 | 216 | 0.0 | 0.0 | 0.00 | 0.00 | 0.00 | 91 | 1013.9 |
| 20260509075848 | 11 | 216 | 0.0 | 0.0 | 0.00 | 0.00 | 0.00 | 91 | 1014.0 |
| 20260509075347 | 11 | 216 | 0.0 | 0.0 | 0.00 | 0.00 | 0.00 | 91 | 1013.8 |
| 20260509074845 | 11 | 216 | 0.0 | 1.6 | 0.00 | 0.00 | 0.00 | 91 | 1013.7 |
| 20260509074345 | 11 | 216 | 0.0 | 1.6 | 0.00 | 0.00 | 0.00 | 91 | 1013.7 |
| 20260509073843 | 11 | 216 | 0.0 | 1.6 | 0.00 | 0.00 | 0.00 | 91 | 1013.8 |
| 20260509073341 | 11 | 216 | 0.0 | 1.6 | 0.00 | 0.00 | 0.00 | 91 | 1013.8 |
| 20260509072837 | 11 | 216 | 0.0 | 1.6 | 0.00 | 0.00 | 0.00 | 91 | 1013.6 |
| 20260509072336 | 11 | 216 | 0.0 | 1.6 | 0.00 | 0.00 | 0.00 | 91 | 1013.5 |
| 20260509071835 | 11 | 216 | 0.0 | 0.0 | 0.00 | 0.00 | 0.00 | 90 | 1013.2 |
| 20260509071335 | 11 | 216 | 0.0 | 1.6 | 0.00 | 0.00 | 0.00 | 90 | 1013.7 |
| 20260509070833 | 11 | 216 | 0.0 | 3.2 | 0.00 | 0.00 | 0.00 | 90 | 1013.5 |
| 20260509070354 | 12 | 216 | 0.0 | 3.2 | 0.00 | 0.00 | 0.00 | 90 | 1013.5 |
| 20260509065842 | 12 | 216 | 0.0 | 1.6 | 0.00 | 0.00 | 0.00 | 90 | 1013.6 |
| 20260509065343 | 12 | 216 | 0.0 | 1.6 | 0.00 | 0.00 | 0.00 | 89 | 1013.7 |
| 20260509064845 | 12 | 216 | 0.0 | 1.6 | 0.00 | 0.00 | 0.00 | 89 | 1013.8 |
| 20260509064344 | 12 | 216 | 0.0 | 1.6 | 0.00 | 0.00 | 0.00 | 89 | 1014.0 |
| 20260509063843 | 12 | 216 | 0.0 | 1.6 | 0.00 | 0.00 | 0.00 | 89 | 1014.0 |
| 20260509063345 | 12 | 216 | 0.0 | 0.0 | 0.00 | 0.00 | 0.00 | 89 | 1014.0 |
| 20260509062837 | 12 | 216 | 0.0 | 0.0 | 0.00 | 0.00 | 0.00 | 88 | 1014.0 |
| 20260509062357 | 12 | 216 | 0.0 | 0.0 | 0.00 | 0.00 | 0.00 | 88 | 1014.1 |
| 20260509061835 | 12 | 216 | 0.0 | 0.0 | 0.00 | 0.00 | 0.00 | 88 | 1014.3 |
| 20260509061335 | 12 | 216 | 0.0 | 3.2 | 0.00 | 0.00 | 0.00 | 88 | 1014.2 |
| 20260509060832 | 12 | 216 | 0.0 | 3.2 | 0.00 | 0.00 | 0.00 | 88 | 1014.4 |
| 20260509060353 | 12 | 216 | 0.0 | 4.8 | 0.00 | 0.00 | 0.00 | 87 | 1014.4 |
| 20260509055847 | 12 | 216 | 3.2 | 6.4 | 0.00 | 0.00 | 0.00 | 87 | 1014.4 |
| 20260509055345 | 12 | 182 | 3.2 | 6.4 | 0.00 | 0.00 | 0.00 | 87 | 1014.5 |
| 20260509054902 | 12 | 188 | 1.6 | 4.8 | 0.00 | 0.00 | 0.00 | 86 | 1014.6 |
| 20260509054340 | 12 | 231 | 0.0 | 0.0 | 0.00 | 0.00 | 0.00 | 87 | 1014.7 |
| 20260509053838 | 12 | 231 | 0.0 | 0.0 | 0.00 | 0.00 | 0.00 | 86 | 1014.6 |
| 20260509053340 | 12 | 231 | 0.0 | 0.0 | 0.00 | 0.00 | 0.00 | 86 | 1014.7 |
| 20260509052840 | 12 | 231 | 0.0 | 1.6 | 0.00 | 0.00 | 0.00 | 87 | 1014.8 |
| 20260509052340 | 12 | 231 | 0.0 | 1.6 | 0.00 | 0.00 | 0.00 | 86 | 1014.8 |
| 20260509051836 | 12 | 231 | 0.0 | 1.6 | 0.00 | 0.00 | 0.00 | 86 | 1014.8 |
| 20260509051336 | 12 | 231 | 0.0 | 1.6 | 0.00 | 0.00 | 0.00 | 85 | 1014.8 |
| 20260509050831 | 12 | 231 | 1.6 | 3.2 | 0.00 | 0.00 | 0.00 | 86 | 1014.9 |
| 20260509050351 | 13 | 231 | 0.0 | 3.2 | 0.00 | 0.00 | 0.00 | 86 | 1014.9 |
| 20260509045844 | 13 | 231 | 0.0 | 1.6 | 0.00 | 0.00 | 0.00 | 85 | 1015.0 |
| 20260509045343 | 13 | 231 | 0.0 | 1.6 | 0.00 | 0.00 | 0.00 | 84 | 1014.8 |
| 20260509044840 | 13 | 231 | 0.0 | 0.0 | 0.00 | 0.00 | 0.00 | 83 | 1014.8 |
| 20260509044340 | 13 | 231 | 0.0 | 0.0 | 0.00 | 0.00 | 0.00 | 82 | 1014.8 |
| 20260509043838 | 13 | 231 | 0.0 | 0.0 | 0.00 | 0.00 | 0.00 | 81 | 1014.9 |
| 20260509043339 | 13 | 231 | 0.0 | 1.6 | 0.00 | 0.00 | 0.00 | 81 | 1015.1 |
| 20260509042833 | 13 | 231 | 0.0 | 1.6 | 0.00 | 0.00 | 0.00 | 81 | 1015.1 |
| 20260509042333 | 13 | 231 | 0.0 | 3.2 | 0.00 | 0.00 | 0.00 | 81 | 1015.2 |
| 20260509041836 | 13 | 231 | 0.0 | 3.2 | 0.00 | 0.00 | 0.00 | 80 | 1015.3 |
| 20260509041333 | 14 | 199 | 0.0 | 1.6 | 0.00 | 0.00 | 0.00 | 80 | 1015.4 |
| 20260509040833 | 14 | 198 | 0.0 | 3.2 | 0.00 | 0.00 | 0.00 | 80 | 1015.3 |
| 20260509040353 | 14 | 200 | 1.6 | 3.2 | 0.00 | 0.00 | 0.00 | 80 | 1015.3 |
| 20260509035905 | 14 | 211 | 0.0 | 4.8 | 0.00 | 0.00 | 0.00 | 79 | 1015.4 |
| 20260509035344 | 14 | 211 | 1.6 | 4.8 | 0.00 | 0.00 | 0.00 | 79 | 1015.4 |
| 20260509034842 | 14 | 259 | 0.0 | 4.8 | 0.00 | 0.00 | 0.00 | 79 | 1015.3 |
| 20260509034403 | 14 | 259 | 0.0 | 4.8 | 0.00 | 0.00 | 0.00 | 78 | 1015.3 |
| 20260509033837 | 14 | 201 | 0.0 | 6.4 | 0.00 | 0.00 | 0.00 | 77 | 1015.3 |
| 20260509033338 | 15 | 205 | 1.6 | 6.4 | 0.00 | 0.00 | 0.00 | 76 | 1015.4 |
| 20260509032832 | 15 | 302 | 0.0 | 3.2 | 0.00 | 0.00 | 0.00 | 76 | 1015.4 |
| 20260509032351 | 15 | 302 | 1.6 | 3.2 | 0.00 | 0.00 | 0.00 | 76 | 1015.4 |
| 20260509031848 | 15 | 193 | 0.0 | 4.8 | 0.00 | 0.00 | 0.00 | 75 | 1015.5 |
| 20260509031348 | 15 | 193 | 0.0 | 4.8 | 0.00 | 0.00 | 0.00 | 75 | 1015.4 |
| 20260509030843 | 15 | 210 | 1.6 | 4.8 | 0.00 | 0.00 | 0.00 | 75 | 1015.4 |
| 20260509030344 | 15 | 202 | 1.6 | 4.8 | 0.00 | 0.00 | 0.00 | 75 | 1015.5 |
| 20260509025839 | 15 | 188 | 0.0 | 3.2 | 0.00 | 0.00 | 0.00 | 74 | 1015.7 |
| 20260509025336 | 15 | 188 | 1.6 | 6.4 | 0.00 | 0.00 | 0.00 | 74 | 1015.6 |
| 20260509024833 | 15 | 205 | 1.6 | 6.4 | 0.00 | 0.00 | 0.00 | 73 | 1015.6 |
| 20260509024338 | 15 | 195 | 1.6 | 3.2 | 0.00 | 0.00 | 0.00 | 73 | 1015.6 |
| 20260509023836 | 15 | 217 | 0.0 | 4.8 | 0.00 | 0.00 | 0.00 | 72 | 1015.5 |
| 20260509023335 | 16 | 217 | 0.0 | 4.8 | 0.00 | 0.00 | 0.00 | 71 | 1015.8 |
| 20260509022830 | 16 | 217 | 0.0 | 4.8 | 0.00 | 0.00 | 0.00 | 70 | 1015.8 |
| 20260509022329 | 16 | 219 | 0.0 | 4.8 | 0.00 | 0.00 | 0.00 | 70 | 1015.5 |
| 20260509021909 | 16 | 242 | 1.6 | 1.6 | 0.00 | 0.00 | 0.00 | 69 | 1015.5 |
| 20260509021347 | 16 | 242 | 0.0 | 3.2 | 0.00 | 0.00 | 0.00 | 68 | 1015.5 |
| 20260509020846 | 16 | 242 | 1.6 | 4.8 | 0.00 | 0.00 | 0.00 | 68 | 1015.4 |
| 20260509020346 | 16 | 242 | 0.0 | 4.8 | 0.00 | 0.00 | 0.00 | 67 | 1015.4 |
| 20260509015836 | 16 | 220 | 1.6 | 4.8 | 0.00 | 0.00 | 0.00 | 68 | 1015.3 |
| 20260509015336 | 16 | 225 | 1.6 | 1.6 | 0.00 | 0.00 | 0.00 | 67 | 1015.4 |
| 20260509014833 | 16 | 224 | 0.0 | 6.4 | 0.00 | 0.00 | 0.00 | 68 | 1015.2 |
| 20260509014334 | 16 | 223 | 1.6 | 9.7 | 0.00 | 0.00 | 0.00 | 68 | 1015.3 |
| 20260509013832 | 16 | 209 | 3.2 | 9.7 | 0.00 | 0.00 | 0.00 | 68 | 1015.2 |
| 20260509013333 | 16 | 200 | 1.6 | 4.8 | 0.00 | 0.00 | 0.00 | 69 | 1015.2 |
| 20260509012344 | 16 | 189 | 0.0 | 3.2 | 0.00 | 0.00 | 0.00 | 70 | 1015.2 |
| 20260509011840 | 16 | 189 | 0.0 | 1.6 | 0.00 | 0.00 | 0.00 | 69 | 1015.4 |
| 20260509011339 | 16 | 189 | 0.0 | 9.7 | 0.00 | 0.00 | 0.00 | 69 | 1015.2 |
| 20260509010836 | 17 | 189 | 1.6 | 9.7 | 0.00 | 0.00 | 0.00 | 68 | 1015.4 |
| 20260509010337 | 17 | 200 | 1.6 | 4.8 | 0.00 | 0.00 | 0.00 | 67 | 1015.4 |
| 20260509005851 | 17 | 198 | 1.6 | 4.8 | 0.00 | 0.00 | 0.00 | 66 | 1015.2 |
| 20260509005407 | 17 | 196 | 1.6 | 4.8 | 0.00 | 0.00 | 0.00 | 66 | 1015.4 |
| 20260509004844 | 17 | 204 | 1.6 | 4.8 | 0.00 | 0.00 | 0.00 | 65 | 1015.4 |
| 20260509004344 | 17 | 259 | 1.6 | 6.4 | 0.00 | 0.00 | 0.00 | 65 | 1015.3 |
| 20260509003843 | 17 | 200 | 1.6 | 8.0 | 0.00 | 0.00 | 0.00 | 64 | 1015.5 |
| 20260509003344 | 17 | 186 | 1.6 | 8.0 | 0.00 | 0.00 | 0.00 | 63 | 1015.3 |
| 20260509002838 | 18 | 248 | 1.6 | 6.4 | 0.00 | 0.00 | 0.00 | 63 | 1015.3 |
| 20260509002359 | 18 | 167 | 1.6 | 9.7 | 0.00 | 0.00 | 0.00 | 62 | 1015.4 |
| 20260509001854 | 18 | 147 | 4.8 | 9.7 | 0.00 | 0.00 | 0.00 | 61 | 1015.4 |
| 20260509001333 | 18 | 130 | 1.6 | 11.3 | 0.00 | 0.00 | 0.00 | 61 | 1015.3 |
| 20260509000851 | 18 | 175 | 3.2 | 14.5 | 0.00 | 0.00 | 0.00 | 62 | 1015.5 |
| 20260509000410 | 18 | 269 | 3.2 | 14.5 | 0.00 | 0.00 | 0.00 | 61 | 1015.3 |
| 20260508235844 | 18 | 206 | 3.2 | 6.4 | 0.00 | 0.00 | 0.00 | 58 | 1015.4 |
| 20260508235329 | 18 | 216 | 3.2 | 9.7 | 0.00 | 0.00 | 0.00 | 59 | 1015.3 |
| 20260508234845 | 19 | 198 | 3.2 | 9.7 | 0.00 | 0.00 | 0.00 | 56 | 1015.2 |
| 20260508234404 | 19 | 198 | 1.6 | 8.0 | 0.00 | 0.00 | 0.00 | 61 | 1015.2 |
| 20260508233843 | 19 | 172 | 1.6 | 11.3 | 0.00 | 0.00 | 0.00 | 58 | 1015.4 |
| 20260508233343 | 20 | 207 | 3.2 | 11.3 | 0.00 | 0.00 | 0.00 | 56 | 1015.2 |
| 20260508232838 | 20 | 111 | 3.2 | 9.7 | 0.00 | 0.00 | 0.00 | 56 | 1015.1 |
| 20260508232338 | 20 | 136 | 1.6 | 6.4 | 0.00 | 0.00 | 0.00 | 56 | 1015.1 |
| 20260508231836 | 20 | 193 | 1.6 | 16.1 | 0.00 | 0.00 | 0.00 | 55 | 1015.3 |
| 20260508231334 | 20 | 193 | 3.2 | 16.1 | 0.00 | 0.00 | 0.00 | 54 | 1015.2 |
| 20260508230831 | 20 | 183 | 4.8 | 16.1 | 0.00 | 0.00 | 0.00 | 55 | 1015.3 |
| 20260508230333 | 20 | 193 | 6.4 | 17.7 | 0.00 | 0.00 | 0.00 | 57 | 1015.3 |
| 20260508225847 | 20 | 211 | 3.2 | 14.5 | 0.00 | 0.00 | 0.00 | 54 | 1015.4 |
| 20260508225346 | 20 | 161 | 3.2 | 12.9 | 0.00 | 0.00 | 0.00 | 55 | 1015.5 |
| 20260508224844 | 20 | 194 | 4.8 | 12.9 | 0.00 | 0.00 | 0.00 | 53 | 1015.4 |
| 20260508224345 | 21 | 236 | 3.2 | 11.3 | 0.00 | 0.00 | 0.00 | 52 | 1015.4 |
| 20260508223840 | 21 | 130 | 4.8 | 12.9 | 0.00 | 0.00 | 0.00 | 53 | 1015.5 |
| 20260508223345 | 21 | 99 | 4.8 | 9.7 | 0.00 | 0.00 | 0.00 | 53 | 1015.5 |
| 20260508222840 | 21 | 185 | 3.2 | 8.0 | 0.00 | 0.00 | 0.00 | 53 | 1015.5 |
| 20260508222340 | 21 | 202 | 1.6 | 6.4 | 0.00 | 0.00 | 0.00 | 54 | 1015.6 |
| 20260508221836 | 21 | 193 | 0.0 | 6.4 | 0.00 | 0.00 | 0.00 | 53 | 1015.6 |
| 20260508221337 | 21 | 176 | 3.2 | 8.0 | 0.00 | 0.00 | 0.00 | 52 | 1015.6 |
| 20260508220831 | 21 | 221 | 4.8 | 8.0 | 0.00 | 0.00 | 0.00 | 53 | 1015.5 |
| 20260508220352 | 21 | 197 | 4.8 | 8.0 | 0.00 | 0.00 | 0.00 | 49 | 1015.5 |
| 20260508215845 | 22 | 170 | 1.6 | 6.4 | 0.00 | 0.00 | 0.00 | 52 | 1015.5 |
| 20260508215346 | 22 | 169 | 3.2 | 6.4 | 0.00 | 0.00 | 0.00 | 50 | 1015.4 |
| 20260508214845 | 22 | 196 | 3.2 | 4.8 | 0.00 | 0.00 | 0.00 | 47 | 1015.4 |
| 20260508214346 | 22 | 149 | 1.6 | 4.8 | 0.00 | 0.00 | 0.00 | 46 | 1015.5 |
| 20260508213844 | 22 | 196 | 0.0 | 4.8 | 0.00 | 0.00 | 0.00 | 46 | 1015.3 |
| 20260508213341 | 22 | 196 | 1.6 | 4.8 | 0.00 | 0.00 | 0.00 | 44 | 1015.4 |
| 20260508212856 | 22 | 206 | 3.2 | 6.4 | 0.00 | 0.00 | 0.00 | 41 | 1015.3 |
| 20260508212335 | 22 | 54 | 1.6 | 6.4 | 0.00 | 0.00 | 0.00 | 43 | 1015.4 |
| 20260508211837 | 22 | 189 | 3.2 | 6.4 | 0.00 | 0.00 | 0.00 | 42 | 1015.4 |
| 20260508211337 | 22 | 136 | 3.2 | 4.8 | 0.00 | 0.00 | 0.00 | 41 | 1015.5 |
| 20260508210834 | 22 | 136 | 3.2 | 11.3 | 0.00 | 0.00 | 0.00 | 41 | 1015.6 |
| 20260508210354 | 22 | 172 | 6.4 | 11.3 | 0.00 | 0.00 | 0.00 | 42 | 1015.8 |
| 20260508205846 | 22 | 200 | 3.2 | 11.3 | 0.00 | 0.00 | 0.00 | 42 | 1015.8 |
| 20260508205346 | 22 | 223 | 6.4 | 12.9 | 0.00 | 0.00 | 0.00 | 42 | 1015.8 |
| 20260508204905 | 22 | 163 | 1.6 | 9.7 | 0.00 | 0.00 | 0.00 | 41 | 1015.7 |
| 20260508204405 | 22 | 215 | 3.2 | 9.7 | 0.00 | 0.00 | 0.00 | 45 | 1016.0 |
| 20260508203843 | 22 | 178 | 1.6 | 11.3 | 0.00 | 0.00 | 0.00 | 42 | 1015.9 |
| 20260508202854 | 22 | 101 | 4.8 | 11.3 | 0.00 | 0.00 | 0.00 | 45 | 1015.8 |
| 20260508202332 | 22 | 205 | 1.6 | 6.4 | 0.00 | 0.00 | 0.00 | 45 | 1015.8 |
| 20260508201830 | 22 | 206 | 1.6 | 11.3 | 0.00 | 0.00 | 0.00 | 41 | 1015.6 |
| 20260508201329 | 22 | 234 | 4.8 | 11.3 | 0.00 | 0.00 | 0.00 | 45 | 1015.9 |
| 20260508200847 | 22 | 160 | 1.6 | 8.0 | 0.00 | 0.00 | 0.00 | 42 | 1016.0 |
| 20260508200346 | 22 | 182 | 4.8 | 11.3 | 0.00 | 0.00 | 0.00 | 42 | 1016.1 |
| 20260508195838 | 22 | 113 | 4.8 | 11.3 | 0.00 | 0.00 | 0.00 | 43 | 1016.1 |
| 20260508195342 | 22 | 110 | 4.8 | 11.3 | 0.00 | 0.00 | 0.00 | 43 | 1016.2 |
| 20260508194840 | 22 | 173 | 3.2 | 12.9 | 0.00 | 0.00 | 0.00 | 41 | 1016.5 |
| 20260508194340 | 22 | 172 | 6.4 | 12.9 | 0.00 | 0.00 | 0.00 | 44 | 1016.4 |
| 20260508193836 | 22 | 91 | 6.4 | 11.3 | 0.00 | 0.00 | 0.00 | 42 | 1016.3 |
| 20260508193336 | 22 | 108 | 3.2 | 9.7 | 0.00 | 0.00 | 0.00 | 45 | 1016.6 |
| 20260508192832 | 22 | 127 | 3.2 | 8.0 | 0.00 | 0.00 | 0.00 | 45 | 1016.7 |
| 20260508192351 | 21 | 127 | 4.8 | 8.0 | 0.00 | 0.00 | 0.00 | 44 | 1016.6 |
| 20260508191848 | 21 | 194 | 0.0 | 6.4 | 0.00 | 0.00 | 0.00 | 45 | 1016.8 |
| 20260508191347 | 21 | 194 | 3.2 | 9.7 | 0.00 | 0.00 | 0.00 | 45 | 1016.9 |
| 20260508190844 | 21 | 181 | 4.8 | 9.7 | 0.00 | 0.00 | 0.00 | 42 | 1017.1 |
| 20260508190345 | 21 | 196 | 1.6 | 6.4 | 0.00 | 0.00 | 0.00 | 44 | 1017.1 |
| 20260508185840 | 21 | 213 | 3.2 | 9.7 | 0.00 | 0.00 | 0.00 | 44 | 1017.2 |
| 20260508185340 | 21 | 96 | 1.6 | 9.7 | 0.00 | 0.00 | 0.00 | 43 | 1017.1 |
| 20260508184856 | 21 | 281 | 1.6 | 6.4 | 0.00 | 0.00 | 0.00 | 40 | 1017.2 |
| 20260508184335 | 21 | 186 | 1.6 | 8.0 | 0.00 | 0.00 | 0.00 | 45 | 1017.4 |
| 20260508183834 | 21 | 166 | 1.6 | 8.0 | 0.00 | 0.00 | 0.00 | 45 | 1017.6 |
| 20260508183412 | 21 | 160 | 0.0 | 6.4 | 0.00 | 0.00 | 0.00 | 41 | 1017.7 |
| 20260508182845 | 21 | 94 | 4.8 | 9.7 | 0.00 | 0.00 | 0.00 | 41 | 1017.9 |
| 20260508182349 | 21 | 121 | 4.8 | 9.7 | 0.00 | 0.00 | 0.00 | 41 | 1018.0 |
| 20260508181836 | 21 | 142 | 4.8 | 9.7 | 0.00 | 0.00 | 0.00 | 43 | 1018.0 |
| 20260508181336 | 21 | 41 | 1.6 | 8.0 | 0.00 | 0.00 | 0.00 | 42 | 1018.1 |
| 20260508180855 | 21 | 46 | 1.6 | 8.0 | 0.00 | 0.00 | 0.00 | 43 | 1018.1 |
| 20260508180413 | 21 | 185 | 4.8 | 8.0 | 0.00 | 0.00 | 0.00 | 45 | 1018.1 |
| 20260508175905 | 21 | 109 | 4.8 | 9.7 | 0.00 | 0.00 | 0.00 | 42 | 1018.2 |
| 20260508175344 | 21 | 103 | 4.8 | 9.7 | 0.00 | 0.00 | 0.00 | 47 | 1018.1 |
| 20260508174901 | 20 | 167 | 4.8 | 11.3 | 0.00 | 0.00 | 0.00 | 48 | 1018.1 |
| 20260508174336 | 20 | 92 | 3.2 | 8.0 | 0.00 | 0.00 | 0.00 | 48 | 1018.4 |
| 20260508173834 | 20 | 161 | 0.0 | 9.7 | 0.00 | 0.00 | 0.00 | 47 | 1018.5 |
| 20260508173335 | 21 | 309 | 3.2 | 11.3 | 0.00 | 0.00 | 0.00 | 46 | 1018.6 |
| 20260508172831 | 21 | 141 | 6.4 | 11.3 | 0.00 | 0.00 | 0.00 | 46 | 1018.8 |
| 20260508172330 | 21 | 59 | 4.8 | 12.9 | 0.00 | 0.00 | 0.00 | 45 | 1018.7 |
| 20260508171848 | 21 | 119 | 6.4 | 12.9 | 0.00 | 0.00 | 0.00 | 45 | 1018.8 |
| 20260508171348 | 21 | 74 | 4.8 | 8.0 | 0.00 | 0.00 | 0.00 | 48 | 1018.9 |
| 20260508170843 | 20 | 240 | 3.2 | 11.3 | 0.00 | 0.00 | 0.00 | 49 | 1018.8 |
| 20260508170343 | 20 | 17 | 4.8 | 12.9 | 0.00 | 0.00 | 0.00 | 52 | 1018.9 |
| 20260508165838 | 20 | 74 | 3.2 | 11.3 | 0.00 | 0.00 | 0.00 | 49 | 1018.8 |
| 20260508165338 | 20 | 305 | 4.8 | 11.3 | 0.00 | 0.00 | 0.00 | 48 | 1018.8 |
| 20260508164840 | 20 | 204 | 4.8 | 12.9 | 0.00 | 0.00 | 0.00 | 51 | 1019.1 |
| 20260508164340 | 19 | 355 | 1.6 | 8.0 | 0.00 | 0.00 | 0.00 | 48 | 1019.1 |
| 20260508163835 | 20 | 197 | 4.8 | 12.9 | 0.00 | 0.00 | 0.00 | 47 | 1019.3 |
| 20260508163355 | 20 | 199 | 6.4 | 12.9 | 0.00 | 0.00 | 0.00 | 48 | 1019.4 |
| 20260508162848 | 20 | 88 | 3.2 | 11.3 | 0.00 | 0.00 | 0.00 | 47 | 1019.4 |
| 20260508162348 | 20 | 170 | 6.4 | 11.3 | 0.00 | 0.00 | 0.00 | 46 | 1019.6 |
| 20260508161847 | 20 | 159 | 6.4 | 11.3 | 0.00 | 0.00 | 0.00 | 47 | 1019.7 |
| 20260508161348 | 20 | 319 | 3.2 | 11.3 | 0.00 | 0.00 | 0.00 | 45 | 1019.7 |
| 20260508160901 | 19 | 92 | 8.0 | 12.9 | 0.00 | 0.00 | 0.00 | 49 | 1019.7 |
| 20260508160338 | 19 | 88 | 6.4 | 12.9 | 0.00 | 0.00 | 0.00 | 49 | 1019.9 |
| 20260508155830 | 19 | 313 | 3.2 | 6.4 | 0.00 | 0.00 | 0.00 | 49 | 1020.0 |
| 20260508155410 | 20 | 36 | 3.2 | 11.3 | 0.00 | 0.00 | 0.00 | 47 | 1020.1 |
| 20260508154848 | 19 | 92 | 4.8 | 11.3 | 0.00 | 0.00 | 0.00 | 46 | 1020.1 |
| 20260508154347 | 19 | 55 | 3.2 | 9.7 | 0.00 | 0.00 | 0.00 | 51 | 1020.0 |
| 20260508153845 | 18 | 100 | 4.8 | 9.7 | 0.00 | 0.00 | 0.00 | 46 | 1020.0 |
| 20260508153346 | 18 | 26 | 4.8 | 12.9 | 0.00 | 0.00 | 0.00 | 46 | 1020.0 |
| 20260508152900 | 19 | 82 | 8.0 | 12.9 | 0.00 | 0.00 | 0.00 | 42 | 1020.2 |
| 20260508152339 | 19 | 63 | 6.4 | 11.3 | 0.00 | 0.00 | 0.00 | 47 | 1020.3 |
| 20260508151841 | 19 | 34 | 4.8 | 12.9 | 0.00 | 0.00 | 0.00 | 47 | 1020.4 |
| 20260508151341 | 18 | 107 | 4.8 | 12.9 | 0.00 | 0.00 | 0.00 | 51 | 1020.3 |
| 20260508150857 | 18 | 127 | 6.4 | 11.3 | 0.00 | 0.00 | 0.00 | 52 | 1020.5 |
| 20260508150336 | 18 | 118 | 3.2 | 8.0 | 0.00 | 0.00 | 0.00 | 54 | 1020.4 |
| 20260508145830 | 17 | 51 | 4.8 | 9.7 | 0.00 | 0.00 | 0.00 | 57 | 1020.4 |
| 20260508145331 | 18 | 308 | 3.2 | 11.3 | 0.00 | 0.00 | 0.00 | 58 | 1020.4 |
| 20260508144831 | 18 | 93 | 3.2 | 11.3 | 0.00 | 0.00 | 0.00 | 58 | 1020.4 |
| 20260508144331 | 18 | 76 | 1.6 | 8.0 | 0.00 | 0.00 | 0.00 | 52 | 1020.4 |
| 20260508143831 | 17 | 69 | 3.2 | 9.7 | 0.00 | 0.00 | 0.00 | 52 | 1020.5 |